Home   Weather   Schwyz   Past weeks

Flag for Switzerland Past Weather in Schwyz, Schwyz, Switzerland — Yesterday and Last 2 Weeks

Now
62 °F

Refreshingly cool.


Feels Like: 62 °F
Forecast: 35 / 44 °F
Wind: 26 mph from South

Location: Altdorf

Current Time: Apr 30, 2017 at 6:58:25 pm

Latest Report: Apr 30, 2017 at 6:00 pm


Visibility: N/A

Pressure: 29.72 "Hg (27.96 "Hg at 515m altitude)

Humidity: 28%

Dew Point: 28 °F

Location of SchwyzLocation

Past Weather in Schwyz — Graph

°F

Schwyz Temperature Yesterday

Maximum temperature yesterday: 54 °F (at 5:00 pm)
Minimum temperature yesterday: 31 °F (at 8:00 am)
Average temperature yesterday: 42 °F

High & Low Weather Summary for the Past Weeks

 TemperatureHumidityPressure
High64 °F (Apr 30, 3:00 pm)97% (Apr 15, 10:00 pm)30.57 "Hg (Apr 15, 10:00 pm)
Low27 °F (Apr 21, 7:00 am)25% (Apr 30, 3:00 pm)29.71 "Hg (Apr 26, 12:00 am)
Average44 °F75%30.13 "Hg
* Reported Apr 15 5:00 pm — Apr 30 5:00 pm, Schwyz, Weather by CustomWeather, © 2017

Note: Actual official high and low records may vary slightly from our data, if they occured in-between our weather recording intervals... More about our weather records

Advertising

Schwyz Weather History for the Previous 24 Hours

Scroll right to see more
 ConditionsComfort  
Time TempWeatherWind HumidityBarometerVisibility
5:00 pm
Sun, Apr 30
63 °FPassing clouds.28 mph30%29.74 "Hg19 mi
4:00 pm64 °FMild.25 mph27%29.75 "HgN/A
3:00 pm64 °FMild.26 mph25%29.76 "HgN/A
2:00 pm64 °FPassing clouds.26 mph26%29.77 "Hg19 mi
1:00 pm64 °FMild.20 mph26%29.78 "HgN/A
12:00 pm63 °FMild.17 mph27%29.81 "HgN/A
11:00 am53 °FPassing clouds.8 mph54%29.86 "Hg19 mi
10:00 am49 °FCool.7 mph62%29.90 "HgN/A
9:00 am46 °FCool.3 mph67%29.94 "HgN/A
8:00 am33 °FPassing clouds.2 mph91%29.99 "Hg19 mi
7:00 am35 °FChilly.2 mph86%29.99 "HgN/A
6:00 am33 °FChilly.2 mph88%30.01 "HgN/A
5:00 am31 °FClear.2 mph95%30.02 "Hg12 mi
4:00 am36 °FChilly.1 mph88%30.01 "HgN/A
3:00 am36 °FChilly.3 mph89%30.02 "HgN/A
2:00 am35 °FClear.2 mph92%30.03 "Hg12 mi
1:00 am36 °FChilly.2 mph92%30.03 "HgN/A
12:00 am37 °FChilly.2 mph89%30.03 "HgN/A
11:00 pm
Sat, Apr 29
39 °FClear.2 mph84%30.03 "Hg12 mi
10:00 pm42 °FQuite cool.2 mph80%30.03 "HgN/A
9:00 pm42 °FQuite cool.3 mph78%30.02 "HgN/A
8:00 pm46 °FSunny.2 mph69%30.01 "Hg19 mi
7:00 pm49 °FCool.2 mph57%30.00 "HgN/A
6:00 pm53 °FCool.3 mph56%30.00 "HgN/A
Weather by CustomWeather, © 2017

See weather overviewHow to use our weather pages